Total_Precipitation_Accumulation
2.10 2.05 1.56 0.92 0.75 0.58 0.51 0.54 0.52 0.43 0.46 0.56 0.59 0.61 0.67 0.68 0.67 0.70 0.74 0.74 0.74 0.85 1.15 1.27 1.36 1.67 1.96 2.12 2.31 2.49 2.63 2.76 3.05 3.26 3.28 3.21 3.09 2.83 2.71 2.69 2.61 2.51 2.44 2.53
1.85 1.44 0.87 0.66 0.66 0.65 0.62 0.64 0.59 0.48 0.43 0.57 0.60 0.61 0.57 0.56 0.66 0.76 0.75 0.80 0.84 0.85 1.04 1.18 1.25 1.42 1.65 1.89 2.13 2.37 2.51 2.64 2.70 2.79 3.05 3.22 3.34 3.19 2.89 2.72 2.65 2.56 2.46 2.47
1.38 0.86 0.66 0.77 0.77 0.77 0.66 0.57 0.52 0.53 0.54 0.61 0.63 0.69 0.55 0.55 0.60 0.67 0.71 0.76 0.79 0.83 0.91 1.03 1.17 1.39 1.50 1.65 1.92 2.21 2.38 2.52 2.59 2.67 2.97 3.23 3.42 3.32 3.01 2.64 2.50 2.53 2.51 2.49
1.20 0.75 0.72 0.87 0.75 0.67 0.66 0.39 0.40 0.48 0.68 0.78 0.69 0.93 0.63 0.57 0.60 0.64 0.70 0.69 0.71 0.76 0.79 0.85 0.98 1.17 1.31 1.47 1.68 1.87 2.09 2.26 2.47 2.62 2.74 2.83 2.97 3.01 2.77 2.63 2.53 2.58 2.62 2.59
1.17 0.80 0.83 0.89 0.64 0.55 0.55 0.35 0.42 0.49 0.68 0.78 0.61 0.84 0.71 0.47 0.54 0.65 0.73 0.72 0.72 0.77 0.78 0.79 0.95 1.14 1.21 1.32 1.59 1.75 1.85 2.05 2.27 2.45 2.53 2.71 2.75 2.79 2.87 2.85 2.76 2.67 2.66 2.59
0.86 0.70 0.82 0.73 0.55 0.54 0.57 0.55 0.63 0.66 0.96 1.06 0.48 0.64 0.70 0.53 0.59 0.60 0.61 0.65 0.71 0.77 0.83 0.89 1.03 1.14 1.19 1.26 1.43 1.66 1.68 1.78 1.96 2.24 2.47 2.55 2.53 2.59 2.66 2.68 2.65 2.64 2.64 2.60
1.10 0.84 0.71 0.66 0.79 0.73 0.75 0.99 1.38 1.45 1.37 0.77 0.31 0.50 0.72 0.54 0.53 0.56 0.57 0.60 0.65 0.74 0.78 0.89 1.02 1.04 1.09 1.20 1.32 1.47 1.58 1.67 1.77 1.97 2.21 2.39 2.49 2.52 2.55 2.58 2.55 2.48 2.40 2.32
1.10 1.11 0.72 0.64 0.80 0.85 0.72 0.80 1.06 1.04 0.64 0.40 0.31 0.50 0.64 0.50 0.43 0.39 0.40 0.48 0.57 0.66 0.68 0.73 0.87 0.95 1.03 1.14 1.21 1.24 1.30 1.38 1.46 1.57 1.74 1.97 2.25 2.37 2.31 2.31 2.28 2.25 2.18 2.15
0.81 0.74 0.45 0.42 0.46 0.57 0.75 0.74 0.60 0.93 0.67 0.53 0.42 0.45 0.47 0.36 0.34 0.34 0.37 0.46 0.57 0.67 0.72 0.71 0.78 0.84 0.90 1.03 1.16 1.14 1.14 1.20 1.29 1.34 1.46 1.60 1.85 2.02 2.05 2.08 2.04 1.96 1.91 1.97
0.63 0.67 0.42 0.37 0.47 0.51 0.54 0.57 0.75 1.27 1.17 0.80 0.47 0.42 0.58 0.46 0.37 0.38 0.45 0.51 0.60 0.73 0.73 0.69 0.74 0.80 0.81 0.89 1.04 1.07 1.09 1.12 1.26 1.32 1.37 1.47 1.58 1.67 1.81 1.89 1.79 1.76 1.75 1.78
0.52 0.71 0.55 0.47 0.54 0.51 0.46 0.61 0.76 0.92 0.92 0.95 0.65 0.61 0.65 0.55 0.48 0.47 0.49 0.57 0.68 0.72 0.75 0.78 0.79 0.82 0.86 0.91 0.97 0.99 1.07 1.12 1.23 1.28 1.27 1.30 1.38 1.43 1.50 1.58 1.61 1.56 1.59 1.60
0.42 0.66 0.60 0.38 0.28 0.30 0.42 0.48 0.65 1.07 0.86 0.71 0.74 0.75 0.56 0.48 0.48 0.47 0.48 0.54 0.62 0.62 0.70 0.77 0.78 0.80 0.89 0.94 0.94 0.91 0.96 1.02 1.14 1.18 1.13 1.14 1.21 1.30 1.34 1.36 1.42 1.44 1.46 1.49
0.68 0.96 0.91 0.63 0.53 0.50 0.58 0.46 0.49 0.82 1.06 0.84 0.83 0.79 0.52 0.41 0.41 0.43 0.47 0.52 0.53 0.53 0.55 0.61 0.67 0.69 0.74 0.77 0.79 0.85 0.85 0.84 0.91 0.95 0.92 0.94 0.96 1.06 1.18 1.21 1.20 1.24 1.30 1.35
0.96 0.98 0.79 0.73 0.63 0.71 0.69 0.45 0.44 1.00 1.36 0.79 0.56 0.59 0.50 0.45 0.48 0.48 0.49 0.50 0.48 0.47 0.47 0.54 0.62 0.60 0.63 0.68 0.69 0.75 0.75 0.74 0.80 0.83 0.82 0.83 0.85 0.89 0.97 1.04 1.04 1.05 1.08 1.15
0.81 0.84 0.45 0.42 0.46 0.63 0.60 0.43 0.42 0.68 0.70 0.75 0.49 0.45 0.52 0.54 0.61 0.59 0.55 0.48 0.40 0.39 0.41 0.48 0.59 0.63 0.62 0.67 0.69 0.69 0.74 0.79 0.84 0.87 0.87 0.85 0.83 0.83 0.87 0.94 0.97 0.97 0.96 0.94
0.72 0.80 0.53 0.47 0.42 0.54 0.49 0.32 0.32 0.36 0.39 0.45 0.38 0.47 0.48 0.50 0.54 0.57 0.55 0.45 0.36 0.36 0.37 0.41 0.51 0.67 0.63 0.68 0.77 0.77 0.82 0.91 0.92 0.95 0.91 0.88 0.84 0.82 0.80 0.81 0.83 0.86 0.88 0.86
0.76 0.91 1.05 0.77 0.40 0.55 0.57 0.41 0.38 0.40 0.40 0.42 0.51 0.51 0.41 0.46 0.54 0.57 0.52 0.40 0.35 0.34 0.34 0.38 0.44 0.61 0.70 0.73 0.83 0.92 0.95 1.00 0.99 0.99 0.92 0.86 0.82 0.80 0.79 0.77 0.78 0.81 0.85 0.89
0.63 0.90 1.34 1.10 0.70 0.81 0.60 0.41 0.39 0.42 0.43 0.40 0.42 0.38 0.38 0.44 0.48 0.48 0.42 0.38 0.33 0.30 0.30 0.34 0.39 0.46 0.59 0.64 0.73 0.84 0.93 1.04 1.04 1.03 1.01 0.97 0.94 0.96 0.99 0.98 1.00 1.00 0.98 1.02
0.34 0.78 1.28 1.17 0.87 0.52 0.31 0.25 0.38 0.48 0.48 0.39 0.33 0.28 0.25 0.28 0.36 0.42 0.36 0.34 0.35 0.32 0.30 0.31 0.34 0.37 0.44 0.53 0.60 0.70 0.86 1.04 1.15 1.21 1.22 1.23 1.24 1.27 1.29 1.31 1.30 1.30 1.30 1.31
0.28 0.59 1.20 1.17 0.98 0.53 0.32 0.16 0.21 0.37 0.58 0.31 0.24 0.24 0.23 0.23 0.37 0.44 0.38 0.34 0.34 0.33 0.32 0.31 0.32 0.34 0.38 0.50 0.58 0.72 0.93 1.12 1.26 1.32 1.36 1.39 1.45 1.50 1.45 1.41 1.37 1.29 1.26 1.28
0.43 0.75 1.04 0.97 0.95 0.54 0.34 0.17 0.17 0.53 0.69 0.32 0.26 0.28 0.28 0.34 0.43 0.37 0.33 0.35 0.36 0.37 0.40 0.41 0.42 0.46 0.49 0.55 0.66 0.84 0.98 1.12 1.21 1.23 1.27 1.30 1.28 1.28 1.25 1.21 1.16 1.12 1.07 1.02
0.42 0.62 0.67 0.74 1.00 0.74 0.38 0.27 0.49 0.67 0.43 0.33 0.27 0.27 0.29 0.30 0.28 0.25 0.24 0.26 0.29 0.31 0.39 0.48 0.55 0.60 0.60 0.64 0.74 0.84 0.90 0.94 0.95 0.95 0.96 0.97 0.92 0.85 0.85 0.88 0.88 0.87 0.86 0.83
0.48 0.65 0.71 0.76 0.83 0.67 0.50 0.55 0.61 0.51 0.44 0.34 0.30 0.27 0.27 0.26 0.25 0.22 0.19 0.18 0.19 0.20 0.23 0.29 0.38 0.44 0.44 0.45 0.51 0.58 0.57 0.55 0.56 0.57 0.61 0.62 0.61 0.59 0.58 0.62 0.66 0.69 0.71 0.72
0.46 0.42 0.55 0.64 0.59 0.47 0.45 0.45 0.44 0.42 0.42 0.37 0.32 0.29 0.27 0.29 0.26 0.23 0.19 0.17 0.16 0.15 0.17 0.19 0.22 0.25 0.26 0.26 0.29 0.33 0.33 0.31 0.33 0.38 0.43 0.49 0.53 0.54 0.54 0.57 0.60 0.64 0.66 0.69
0.41 0.40 0.51 0.58 0.47 0.41 0.37 0.35 0.37 0.34 0.32 0.29 0.27 0.26 0.26 0.27 0.27 0.24 0.23 0.21 0.20 0.18 0.18 0.20 0.22 0.23 0.24 0.24 0.25 0.26 0.28 0.28 0.29 0.31 0.36 0.41 0.48 0.54 0.57 0.57 0.59 0.65 0.68 0.79
0.41 0.50 0.64 0.64 0.48 0.53 0.46 0.35 0.32 0.30 0.28 0.29 0.29 0.29 0.28 0.27 0.29 0.26 0.26 0.25 0.24 0.23 0.22 0.22 0.24 0.27 0.30 0.31 0.33 0.33 0.33 0.33 0.33 0.35 0.37 0.43 0.48 0.52 0.57 0.60 0.61 0.66 0.70 0.77